| time (UTC) | temp F | wind direction | speed MPH | gust MPH | rain 1hr in | rain 24hr in | rain mn in | humidity % | barometer mb |
| 20260905132020 | 68 | 0 | 0.0 | 5.0 | 0.00 | 0.00 | 0.00 | 84 | 1011.3 |
| 20260905131534 | 68 | 0 | 0.0 | 5.0 | 0.00 | 0.00 | 0.00 | 85 | 1011.2 |
| 20260905131019 | 67 | 173 | 0.0 | 4.0 | 0.00 | 0.00 | 0.00 | 87 | 1011.3 |
| 20260905130518 | 66 | 0 | 0.0 | 4.0 | 0.00 | 0.00 | 0.00 | 88 | 1011.5 |
| 20260905130035 | 65 | 0 | 0.0 | 2.0 | 0.00 | 0.00 | 0.00 | 91 | 1011.5 |
| 20260905125516 | 64 | 0 | 0.0 | 2.0 | 0.00 | 0.00 | 0.00 | 91 | 1011.5 |
| 20260905125016 | 64 | 173 | 0.0 | 5.0 | 0.00 | 0.00 | 0.00 | 93 | 1011.5 |
| 20260905124539 | 63 | 0 | 0.0 | 5.0 | 0.00 | 0.00 | 0.00 | 94 | 1011.7 |
| 20260905124017 | 63 | 0 | 0.0 | 2.0 | 0.00 | 0.00 | 0.00 | 96 | 1011.7 |
| 20260905123517 | 62 | 0 | 0.0 | 2.0 | 0.00 | 0.00 | 0.00 | 96 | 1011.7 |
| 20260905123037 | 62 | 0 | 0.0 | 2.0 | 0.00 | 0.00 | 0.00 | 97 | 1011.7 |
| 20260905122517 | 62 | 0 | 0.0 | 2.0 | 0.00 | 0.00 | 0.00 | 98 | 1011.7 |
| 20260905122020 | 61 | 173 | 0.0 | 2.0 | 0.00 | 0.00 | 0.00 | 98 | 1011.7 |
| 20260905121535 | 61 | 0 | 0.0 | 1.0 | 0.00 | 0.00 | 0.00 | 98 | 1011.6 |
| 20260905121018 | 61 | 0 | 0.0 | 0.0 | 0.00 | 0.00 | 0.00 | 98 | 1011.7 |
| 20260905120518 | 60 | 0 | 0.0 | 0.0 | 0.00 | 0.00 | 0.00 | 98 | 1011.7 |
| 20260905120034 | 60 | 0 | 0.0 | 1.0 | 0.00 | 0.00 | 0.00 | 98 | 1011.6 |
| 20260905115519 | 60 | 0 | 0.0 | 1.0 | 0.00 | 0.00 | 0.00 | 98 | 1011.7 |
| 20260905115020 | 60 | 0 | 0.0 | 2.0 | 0.00 | 0.00 | 0.00 | 98 | 1011.6 |
| 20260905114535 | 59 | 0 | 0.0 | 2.0 | 0.00 | 0.00 | 0.00 | 98 | 1011.4 |
| 20260905114019 | 59 | 0 | 0.0 | 2.0 | 0.00 | 0.00 | 0.00 | 98 | 1011.4 |
| 20260905113516 | 58 | 0 | 0.0 | 1.0 | 0.00 | 0.00 | 0.00 | 98 | 1011.3 |
| 20260905113035 | 58 | 0 | 0.0 | 0.0 | 0.00 | 0.00 | 0.00 | 98 | 1011.3 |
| 20260905112520 | 57 | 0 | 0.0 | 0.0 | 0.00 | 0.00 | 0.00 | 98 | 1011.2 |
| 20260905112017 | 56 | 0 | 0.0 | 0.0 | 0.00 | 0.00 | 0.00 | 97 | 1011.2 |
| 20260905111536 | 56 | 0 | 0.0 | 0.0 | 0.00 | 0.00 | 0.00 | 96 | 1011.1 |
| 20260905111018 | 56 | 0 | 0.0 | 0.0 | 0.00 | 0.00 | 0.00 | 96 | 1011.1 |
| 20260905110517 | 56 | 0 | 0.0 | 0.0 | 0.00 | 0.00 | 0.00 | 96 | 1011.0 |
| 20260905110034 | 56 | 0 | 0.0 | 0.0 | 0.00 | 0.00 | 0.00 | 96 | 1011.0 |
| 20260905105517 | 56 | 0 | 0.0 | 0.0 | 0.00 | 0.00 | 0.00 | 96 | 1011.0 |
| 20260905105021 | 57 | 0 | 0.0 | 0.0 | 0.00 | 0.00 | 0.00 | 96 | 1010.8 |
| 20260905104537 | 57 | 0 | 0.0 | 0.0 | 0.00 | 0.00 | 0.00 | 96 | 1010.7 |
| 20260905104018 | 57 | 0 | 0.0 | 0.0 | 0.00 | 0.00 | 0.00 | 96 | 1010.6 |
| 20260905103516 | 57 | 0 | 0.0 | 0.0 | 0.00 | 0.00 | 0.00 | 96 | 1010.7 |
| 20260905103044 | 57 | 0 | 0.0 | 0.0 | 0.00 | 0.00 | 0.00 | 97 | 1010.6 |
| 20260905102515 | 57 | 0 | 0.0 | 0.0 | 0.00 | 0.00 | 0.00 | 97 | 1010.4 |
| 20260905102018 | 57 | 0 | 0.0 | 0.0 | 0.00 | 0.00 | 0.00 | 97 | 1010.4 |
| 20260905101535 | 57 | 0 | 0.0 | 0.0 | 0.00 | 0.00 | 0.00 | 96 | 1010.4 |
| 20260905101017 | 57 | 0 | 0.0 | 0.0 | 0.00 | 0.00 | 0.00 | 96 | 1010.4 |
| 20260905100519 | 57 | 0 | 0.0 | 0.0 | 0.00 | 0.00 | 0.00 | 96 | 1010.4 |
| 20260905100036 | 57 | 0 | 0.0 | 0.0 | 0.00 | 0.00 | 0.00 | 96 | 1010.3 |
| 20260905095516 | 57 | 0 | 0.0 | 0.0 | 0.00 | 0.00 | 0.00 | 96 | 1010.3 |
| 20260905095019 | 57 | 0 | 0.0 | 0.0 | 0.00 | 0.00 | 0.00 | 96 | 1010.3 |
| 20260905094537 | 58 | 0 | 0.0 | 1.0 | 0.00 | 0.00 | 0.00 | 96 | 1010.1 |
| 20260905094016 | 58 | 0 | 0.0 | 2.0 | 0.00 | 0.00 | 0.00 | 96 | 1010.2 |
| 20260905093521 | 58 | 0 | 0.0 | 2.0 | 0.00 | 0.00 | 0.00 | 96 | 1010.2 |
| 20260905093034 | 58 | 292 | 0.0 | 1.0 | 0.00 | 0.00 | 0.00 | 96 | 1010.2 |
| 20260905092516 | 58 | 0 | 0.0 | 0.0 | 0.00 | 0.00 | 0.00 | 96 | 1010.2 |
| 20260905092017 | 58 | 0 | 0.0 | 0.0 | 0.00 | 0.00 | 0.00 | 96 | 1010.1 |
| 20260905091609 | 58 | 0 | 0.0 | 0.0 | 0.00 | 0.00 | 0.00 | 96 | 1010.2 |
| 20260905091021 | 58 | 0 | 0.0 | 0.0 | 0.00 | 0.00 | 0.00 | 96 | 1010.2 |
| 20260905090517 | 58 | 0 | 0.0 | 0.0 | 0.00 | 0.00 | 0.00 | 96 | 1010.2 |
| 20260905090036 | 58 | 0 | 0.0 | 0.0 | 0.00 | 0.00 | 0.00 | 96 | 1010.2 |
| 20260905085518 | 58 | 0 | 0.0 | 0.0 | 0.00 | 0.00 | 0.00 | 96 | 1010.2 |
| 20260905085017 | 58 | 0 | 0.0 | 0.0 | 0.00 | 0.00 | 0.00 | 96 | 1010.2 |
| 20260905084534 | 58 | 0 | 0.0 | 0.0 | 0.00 | 0.00 | 0.00 | 96 | 1010.1 |
| 20260905084016 | 58 | 0 | 0.0 | 0.0 | 0.00 | 0.00 | 0.00 | 96 | 1010.1 |
| 20260905083517 | 59 | 0 | 0.0 | 0.0 | 0.00 | 0.00 | 0.00 | 96 | 1010.0 |
| 20260905083035 | 59 | 0 | 0.0 | 0.0 | 0.00 | 0.00 | 0.00 | 95 | 1010.1 |
| 20260905082516 | 59 | 0 | 0.0 | 0.0 | 0.00 | 0.00 | 0.00 | 95 | 1010.1 |
| 20260905082020 | 59 | 0 | 0.0 | 0.0 | 0.00 | 0.00 | 0.00 | 95 | 1010.1 |
| 20260905081536 | 59 | 0 | 0.0 | 0.0 | 0.00 | 0.00 | 0.00 | 95 | 1010.2 |
| 20260905081020 | 59 | 0 | 0.0 | 0.0 | 0.00 | 0.00 | 0.00 | 95 | 1010.3 |
| 20260905080518 | 59 | 0 | 0.0 | 0.0 | 0.00 | 0.00 | 0.00 | 95 | 1010.3 |
| 20260905080042 | 59 | 0 | 0.0 | 0.0 | 0.00 | 0.00 | 0.00 | 95 | 1010.5 |
| 20260905075518 | 59 | 0 | 0.0 | 0.0 | 0.00 | 0.01 | 0.00 | 95 | 1010.4 |
| 20260905075015 | 60 | 0 | 0.0 | 0.0 | 0.00 | 0.01 | 0.00 | 95 | 1010.3 |
| 20260905074539 | 60 | 0 | 0.0 | 0.0 | 0.00 | 0.01 | 0.00 | 95 | 1010.3 |
| 20260905074018 | 60 | 0 | 0.0 | 0.0 | 0.00 | 0.01 | 0.00 | 95 | 1010.3 |
| 20260905073519 | 60 | 0 | 0.0 | 0.0 | 0.00 | 0.01 | 0.00 | 95 | 1010.3 |
| 20260905073035 | 60 | 0 | 0.0 | 0.0 | 0.00 | 0.01 | 0.00 | 95 | 1010.3 |
| 20260905072519 | 60 | 0 | 0.0 | 0.0 | 0.00 | 0.01 | 0.00 | 95 | 1010.3 |
| 20260905072016 | 60 | 0 | 0.0 | 0.0 | 0.00 | 0.01 | 0.00 | 94 | 1010.3 |
| 20260905071552 | 60 | 0 | 0.0 | 0.0 | 0.00 | 0.01 | 0.00 | 94 | 1010.4 |
| 20260905071020 | 61 | 0 | 0.0 | 0.0 | 0.00 | 0.01 | 0.00 | 94 | 1010.4 |
| 20260905070517 | 61 | 0 | 0.0 | 0.0 | 0.00 | 0.01 | 0.00 | 94 | 1010.3 |
| 20260905070037 | 61 | 0 | 0.0 | 0.0 | 0.00 | 0.01 | 0.00 | 94 | 1010.3 |
| 20260905065519 | 61 | 0 | 0.0 | 0.0 | 0.00 | 0.30 | 0.00 | 94 | 1010.4 |
| 20260905065018 | 61 | 0 | 0.0 | 0.0 | 0.00 | 0.30 | 0.00 | 94 | 1010.4 |
| 20260905064538 | 62 | 0 | 0.0 | 0.0 | 0.00 | 0.30 | 0.00 | 94 | 1010.3 |
| 20260905064019 | 62 | 0 | 0.0 | 0.0 | 0.00 | 0.30 | 0.00 | 94 | 1010.4 |
| 20260905063516 | 62 | 0 | 0.0 | 0.0 | 0.00 | 0.30 | 0.00 | 95 | 1010.4 |
| 20260905063037 | 62 | 0 | 0.0 | 0.0 | 0.00 | 0.30 | 0.00 | 94 | 1010.5 |
| 20260905062520 | 62 | 0 | 0.0 | 0.0 | 0.00 | 0.30 | 0.00 | 93 | 1010.6 |
| 20260905062016 | 62 | 0 | 0.0 | 0.0 | 0.00 | 0.30 | 0.00 | 93 | 1010.5 |
| 20260905061552 | 62 | 0 | 0.0 | 0.0 | 0.00 | 0.30 | 0.00 | 93 | 1010.6 |
| 20260905061017 | 63 | 0 | 0.0 | 0.0 | 0.00 | 0.30 | 0.00 | 93 | 1010.6 |
| 20260905060521 | 63 | 0 | 0.0 | 0.0 | 0.00 | 0.30 | 0.00 | 93 | 1010.7 |
| 20260905060035 | 63 | 0 | 0.0 | 1.0 | 0.00 | 0.30 | 0.00 | 93 | 1010.8 |
| 20260905055517 | 63 | 0 | 0.0 | 1.0 | 0.00 | 0.30 | 0.00 | 93 | 1010.8 |
| 20260905055018 | 64 | 0 | 0.0 | 1.0 | 0.00 | 0.30 | 0.00 | 94 | 1010.7 |
| 20260905054534 | 64 | 0 | 0.0 | 0.0 | 0.00 | 0.30 | 0.00 | 94 | 1010.7 |
| 20260905054017 | 64 | 0 | 0.0 | 0.0 | 0.00 | 0.30 | 0.00 | 94 | 1010.9 |
| 20260905053517 | 64 | 0 | 0.0 | 0.0 | 0.00 | 0.30 | 0.00 | 94 | 1011.0 |
| 20260905053035 | 64 | 0 | 0.0 | 0.0 | 0.00 | 0.30 | 0.00 | 95 | 1011.1 |
| 20260905052518 | 64 | 0 | 0.0 | 0.0 | 0.00 | 0.30 | 0.00 | 95 | 1011.2 |
| 20260905052016 | 64 | 0 | 0.0 | 0.0 | 0.00 | 0.30 | 0.00 | 95 | 1011.2 |
| 20260905051539 | 64 | 0 | 0.0 | 0.0 | 0.00 | 0.30 | 0.00 | 95 | 1011.3 |
| 20260905051016 | 64 | 0 | 0.0 | 0.0 | 0.00 | 0.30 | 0.00 | 95 | 1011.4 |
| 20260905050515 | 64 | 0 | 0.0 | 0.0 | 0.00 | 0.30 | 0.00 | 95 | 1011.4 |
| 20260905050036 | 64 | 0 | 0.0 | 0.0 | 0.00 | 0.30 | 0.00 | 94 | 1011.4 |
| 20260905045517 | 64 | 0 | 0.0 | 0.0 | 0.00 | 0.30 | 0.00 | 95 | 1011.4 |
| 20260905045016 | 64 | 0 | 0.0 | 0.0 | 0.00 | 0.30 | 0.00 | 95 | 1011.4 |
| 20260905044538 | 64 | 0 | 0.0 | 0.0 | 0.00 | 0.30 | 0.00 | 95 | 1011.4 |
| 20260905044017 | 64 | 0 | 0.0 | 0.0 | 0.00 | 0.30 | 0.00 | 95 | 1011.4 |
| 20260905043517 | 64 | 0 | 0.0 | 0.0 | 0.00 | 0.30 | 0.00 | 95 | 1011.3 |
| 20260905043037 | 64 | 0 | 0.0 | 0.0 | 0.00 | 0.30 | 0.00 | 95 | 1011.3 |
| 20260905042518 | 64 | 0 | 0.0 | 0.0 | 0.00 | 0.30 | 0.00 | 95 | 1011.2 |
| 20260905042018 | 64 | 0 | 0.0 | 0.0 | 0.00 | 0.30 | 0.00 | 94 | 1011.2 |
| 20260905041534 | 64 | 0 | 0.0 | 0.0 | 0.00 | 0.30 | 0.00 | 94 | 1011.3 |
| 20260905041018 | 64 | 0 | 0.0 | 0.0 | 0.00 | 0.30 | 0.00 | 94 | 1011.4 |
| 20260905040518 | 64 | 0 | 0.0 | 0.0 | 0.00 | 0.30 | 0.00 | 94 | 1011.5 |
| 20260905040040 | 64 | 0 | 0.0 | 0.0 | 0.00 | 0.30 | 0.00 | 94 | 1011.5 |
| 20260905035519 | 64 | 0 | 0.0 | 0.0 | 0.00 | 0.30 | 0.30 | 94 | 1011.5 |
| 20260905035023 | 64 | 0 | 0.0 | 0.0 | 0.00 | 0.30 | 0.30 | 94 | 1011.5 |
| 20260905034543 | 64 | 0 | 0.0 | 0.0 | 0.00 | 0.30 | 0.30 | 94 | 1011.6 |
| 20260905034018 | 64 | 0 | 0.0 | 0.0 | 0.00 | 0.30 | 0.30 | 94 | 1011.6 |
| 20260905033516 | 64 | 0 | 0.0 | 0.0 | 0.00 | 0.30 | 0.30 | 94 | 1011.6 |
| 20260905033036 | 64 | 0 | 0.0 | 0.0 | 0.00 | 0.30 | 0.30 | 94 | 1011.5 |
| 20260905032520 | 65 | 0 | 0.0 | 0.0 | 0.00 | 0.30 | 0.30 | 94 | 1011.5 |
| 20260905032021 | 65 | 0 | 0.0 | 0.0 | 0.00 | 0.30 | 0.30 | 94 | 1011.5 |
| 20260905031534 | 65 | 0 | 0.0 | 0.0 | 0.00 | 0.30 | 0.30 | 94 | 1011.3 |
| 20260905031020 | 65 | 0 | 0.0 | 0.0 | 0.00 | 0.30 | 0.30 | 95 | 1011.3 |
| 20260905030517 | 64 | 0 | 0.0 | 0.0 | 0.00 | 0.30 | 0.30 | 95 | 1011.4 |
| 20260905030038 | 64 | 0 | 0.0 | 0.0 | 0.00 | 0.30 | 0.30 | 94 | 1011.4 |
| 20260905025518 | 64 | 0 | 0.0 | 0.0 | 0.00 | 0.30 | 0.30 | 94 | 1011.4 |
| 20260905025016 | 64 | 0 | 0.0 | 0.0 | 0.00 | 0.30 | 0.30 | 94 | 1011.5 |
| 20260905024535 | 64 | 0 | 0.0 | 0.0 | 0.00 | 0.30 | 0.30 | 94 | 1011.3 |
| 20260905024018 | 64 | 0 | 0.0 | 0.0 | 0.00 | 0.30 | 0.30 | 94 | 1011.5 |
| 20260905023518 | 64 | 0 | 0.0 | 0.0 | 0.00 | 0.30 | 0.30 | 94 | 1011.6 |
| 20260905023037 | 64 | 0 | 0.0 | 0.0 | 0.00 | 0.30 | 0.30 | 94 | 1011.5 |
| 20260905022518 | 64 | 0 | 0.0 | 0.0 | 0.00 | 0.30 | 0.30 | 94 | 1011.4 |
| 20260905022019 | 64 | 0 | 0.0 | 0.0 | 0.00 | 0.30 | 0.30 | 93 | 1011.4 |
| 20260905021536 | 64 | 0 | 0.0 | 0.0 | 0.00 | 0.30 | 0.30 | 93 | 1011.4 |
| 20260905021023 | 64 | 0 | 0.0 | 0.0 | 0.00 | 0.30 | 0.30 | 93 | 1011.5 |
| 20260905020520 | 64 | 0 | 0.0 | 0.0 | 0.00 | 0.30 | 0.30 | 93 | 1011.5 |
| 20260905020040 | 64 | 0 | 0.0 | 0.0 | 0.00 | 0.30 | 0.30 | 93 | 1011.5 |
| 20260905015516 | 64 | 0 | 0.0 | 0.0 | 0.00 | 0.30 | 0.30 | 93 | 1011.4 |
| 20260905015019 | 64 | 0 | 0.0 | 0.0 | 0.00 | 0.30 | 0.30 | 93 | 1011.3 |
| 20260905014537 | 64 | 0 | 0.0 | 0.0 | 0.00 | 0.30 | 0.30 | 92 | 1011.3 |
| 20260905014016 | 65 | 0 | 0.0 | 0.0 | 0.00 | 0.30 | 0.30 | 93 | 1011.3 |
| 20260905013515 | 65 | 0 | 0.0 | 0.0 | 0.00 | 0.30 | 0.30 | 93 | 1011.3 |
| 20260905013036 | 65 | 0 | 0.0 | 0.0 | 0.00 | 0.30 | 0.30 | 93 | 1011.2 |
| 20260905012517 | 65 | 0 | 0.0 | 0.0 | 0.00 | 0.30 | 0.30 | 92 | 1011.2 |
| 20260905012019 | 65 | 0 | 0.0 | 0.0 | 0.00 | 0.30 | 0.30 | 92 | 1011.2 |
| 20260905011541 | 65 | 0 | 0.0 | 1.0 | 0.00 | 0.30 | 0.30 | 92 | 1011.3 |
| 20260905011016 | 65 | 0 | 0.0 | 1.0 | 0.00 | 0.30 | 0.30 | 92 | 1011.3 |
| 20260905010517 | 65 | 0 | 0.0 | 0.0 | 0.00 | 0.30 | 0.30 | 92 | 1011.3 |
| 20260905010034 | 66 | 0 | 0.0 | 0.0 | 0.00 | 0.30 | 0.30 | 91 | 1011.3 |
| 20260905005516 | 66 | 0 | 0.0 | 1.0 | 0.00 | 0.30 | 0.30 | 91 | 1011.3 |
| 20260905005018 | 66 | 0 | 0.0 | 1.0 | 0.00 | 0.30 | 0.30 | 90 | 1011.2 |
| 20260905004544 | 67 | 0 | 0.0 | 1.0 | 0.00 | 0.30 | 0.30 | 90 | 1011.2 |
| 20260905004017 | 67 | 0 | 0.0 | 0.0 | 0.00 | 0.30 | 0.30 | 89 | 1011.3 |
| 20260905003521 | 67 | 0 | 0.0 | 0.0 | 0.00 | 0.30 | 0.30 | 89 | 1011.3 |
| 20260905003036 | 68 | 0 | 0.0 | 0.0 | 0.00 | 0.30 | 0.30 | 88 | 1011.2 |
| 20260905002516 | 68 | 0 | 0.0 | 0.0 | 0.00 | 0.30 | 0.30 | 87 | 1011.2 |
| 20260905002019 | 68 | 0 | 0.0 | 0.0 | 0.00 | 0.30 | 0.30 | 86 | 1011.0 |
| 20260905001548 | 69 | 0 | 0.0 | 0.0 | 0.00 | 0.30 | 0.30 | 86 | 1010.9 |
| 20260905001021 | 69 | 0 | 0.0 | 0.0 | 0.00 | 0.30 | 0.30 | 85 | 1010.8 |
| 20260905000516 | 69 | 0 | 0.0 | 0.0 | 0.00 | 0.30 | 0.30 | 84 | 1010.9 |
| 20260905000034 | 70 | 0 | 0.0 | 0.0 | 0.00 | 0.30 | 0.30 | 83 | 1011.0 |
| 20260904235517 | 70 | 0 | 0.0 | 0.0 | 0.00 | 0.30 | 0.30 | 82 | 1011.0 |
| 20260904235017 | 71 | 0 | 0.0 | 0.0 | 0.00 | 0.30 | 0.30 | 81 | 1011.0 |
| 20260904234539 | 71 | 0 | 0.0 | 0.0 | 0.00 | 0.30 | 0.30 | 80 | 1010.9 |
| 20260904234017 | 72 | 0 | 0.0 | 0.0 | 0.00 | 0.30 | 0.30 | 79 | 1010.9 |
| 20260904233518 | 72 | 0 | 0.0 | 0.0 | 0.00 | 0.30 | 0.30 | 78 | 1010.9 |
| 20260904233042 | 73 | 0 | 0.0 | 0.0 | 0.00 | 0.30 | 0.30 | 76 | 1010.9 |
| 20260904232520 | 74 | 0 | 0.0 | 0.0 | 0.00 | 0.30 | 0.30 | 74 | 1010.9 |
| 20260904232021 | 74 | 0 | 0.0 | 1.0 | 0.00 | 0.30 | 0.30 | 73 | 1010.8 |
| 20260904231545 | 75 | 0 | 0.0 | 4.0 | 0.00 | 0.30 | 0.30 | 72 | 1010.9 |
| 20260904231016 | 75 | 0 | 0.0 | 4.0 | 0.00 | 0.30 | 0.30 | 70 | 1010.8 |
| 20260904230518 | 76 | 286 | 0.0 | 4.0 | 0.00 | 0.30 | 0.30 | 69 | 1010.8 |
| 20260904230034 | 76 | 0 | 0.0 | 2.0 | 0.00 | 0.30 | 0.30 | 69 | 1010.8 |
| 20260904225518 | 76 | 0 | 0.0 | 2.0 | 0.00 | 0.30 | 0.30 | 69 | 1010.8 |
| 20260904225018 | 77 | 0 | 0.0 | 3.0 | 0.00 | 0.30 | 0.30 | 69 | 1010.9 |
| 20260904224545 | 77 | 281 | 0.0 | 3.0 | 0.00 | 0.30 | 0.30 | 68 | 1010.9 |
| 20260904224018 | 78 | 0 | 0.0 | 3.0 | 0.00 | 0.30 | 0.30 | 67 | 1010.8 |
| 20260904223521 | 78 | 0 | 0.0 | 3.0 | 0.00 | 0.30 | 0.30 | 68 | 1010.7 |
| 20260904223050 | 78 | 0 | 0.0 | 4.0 | 0.00 | 0.30 | 0.30 | 67 | 1010.7 |
| 20260904222518 | 78 | 0 | 0.0 | 4.0 | 0.00 | 0.30 | 0.30 | 65 | 1010.7 |
| 20260904222016 | 78 | 348 | 1.0 | 4.0 | 0.00 | 0.30 | 0.30 | 64 | 1010.8 |
| 20260904221537 | 79 | 0 | 0.0 | 6.0 | 0.00 | 0.30 | 0.30 | 65 | 1010.7 |
| 20260904221016 | 79 | 0 | 0.0 | 6.0 | 0.00 | 0.30 | 0.30 | 64 | 1010.8 |
| 20260904220516 | 80 | 234 | 1.0 | 7.0 | 0.00 | 0.30 | 0.30 | 61 | 1010.7 |
| 20260904220034 | 81 | 286 | 2.0 | 7.0 | 0.00 | 0.30 | 0.30 | 59 | 1010.6 |
| 20260904215517 | 81 | 281 | 1.0 | 5.0 | 0.00 | 0.30 | 0.30 | 62 | 1010.6 |
| 20260904215017 | 81 | 259 | 0.0 | 4.0 | 0.00 | 0.30 | 0.30 | 61 | 1010.7 |
| 20260904214533 | 81 | 294 | 1.0 | 5.0 | 0.00 | 0.30 | 0.30 | 64 | 1010.7 |
| 20260904214017 | 80 | 294 | 1.0 | 8.0 | 0.00 | 0.30 | 0.30 | 62 | 1010.7 |
| 20260904213525 | 80 | 251 | 0.0 | 8.0 | 0.00 | 0.30 | 0.30 | 61 | 1010.6 |
| 20260904213035 | 81 | 322 | 2.0 | 8.0 | 0.00 | 0.30 | 0.30 | 60 | 1010.4 |
| 20260904212516 | 81 | 50 | 1.0 | 8.0 | 0.00 | 0.30 | 0.30 | 62 | 1010.4 |
| 20260904212015 | 81 | 0 | 1.0 | 6.0 | 0.00 | 0.30 | 0.30 | 60 | 1010.4 |
| 20260904211539 | 81 | 230 | 1.0 | 8.0 | 0.00 | 0.30 | 0.30 | 62 | 1010.4 |
| 20260904211017 | 80 | 12 | 2.0 | 8.0 | 0.00 | 0.30 | 0.30 | 61 | 1010.4 |
| 20260904210518 | 80 | 324 | 1.0 | 5.0 | 0.00 | 0.30 | 0.30 | 64 | 1010.6 |
| 20260904210046 | 81 | 298 | 2.0 | 8.0 | 0.00 | 0.30 | 0.30 | 63 | 1010.6 |
| 20260904205518 | 81 | 326 | 3.0 | 9.0 | 0.00 | 0.30 | 0.30 | 64 | 1010.6 |
| 20260904205018 | 82 | 0 | 2.0 | 9.0 | 0.00 | 0.30 | 0.30 | 61 | 1010.6 |
| 20260904204538 | 82 | 0 | 1.0 | 8.0 | 0.00 | 0.30 | 0.30 | 62 | 1010.6 |
| 20260904204018 | 82 | 346 | 2.0 | 8.0 | 0.00 | 0.30 | 0.30 | 62 | 1010.7 |
| 20260904203516 | 82 | 0 | 1.0 | 10.0 | 0.00 | 0.30 | 0.30 | 63 | 1010.7 |
| 20260904203037 | 82 | 259 | 2.0 | 10.0 | 0.00 | 0.30 | 0.30 | 62 | 1010.7 |
| 20260904202518 | 81 | 331 | 4.0 | 10.0 | 0.00 | 0.30 | 0.30 | 62 | 1010.8 |
| 20260904202016 | 81 | 0 | 1.0 | 9.0 | 0.00 | 0.30 | 0.30 | 66 | 1010.9 |
| 20260904201536 | 81 | 253 | 1.0 | 5.0 | 0.00 | 0.30 | 0.30 | 66 | 1011.0 |
| 20260904201017 | 81 | 333 | 1.0 | 7.0 | 0.00 | 0.30 | 0.30 | 64 | 1010.9 |
| 20260904200520 | 81 | 0 | 0.0 | 10.0 | 0.00 | 0.30 | 0.30 | 62 | 1010.9 |
| 20260904200039 | 82 | 0 | 1.0 | 10.0 | 0.00 | 0.30 | 0.30 | 61 | 1010.9 |
| 20260904195517 | 82 | 275 | 2.0 | 10.0 | 0.00 | 0.30 | 0.30 | 65 | 1010.9 |
| 20260904195016 | 82 | 5 | 2.0 | 8.0 | 0.00 | 0.30 | 0.30 | 60 | 1010.8 |
| 20260904194536 | 82 | 0 | 1.0 | 6.0 | 0.00 | 0.30 | 0.30 | 60 | 1010.9 |
| 20260904194020 | 82 | 329 | 1.0 | 5.0 | 0.00 | 0.30 | 0.30 | 61 | 1010.9 |
| 20260904193519 | 81 | 336 | 1.0 | 5.0 | 0.00 | 0.30 | 0.30 | 60 | 1010.8 |
| 20260904193036 | 81 | 0 | 1.0 | 4.0 | 0.00 | 0.30 | 0.30 | 60 | 1010.8 |
| 20260904192517 | 82 | 0 | 0.0 | 8.0 | 0.00 | 0.30 | 0.30 | 63 | 1010.8 |
| 20260904192016 | 81 | 263 | 3.0 | 8.0 | 0.00 | 0.30 | 0.30 | 59 | 1010.8 |
| 20260904191536 | 81 | 0 | 1.0 | 6.0 | 0.00 | 0.30 | 0.30 | 64 | 1010.8 |
| 20260904191021 | 80 | 0 | 1.0 | 5.0 | 0.00 | 0.30 | 0.30 | 63 | 1011.0 |
| 20260904190518 | 80 | 0 | 0.0 | 5.0 | 0.00 | 0.30 | 0.30 | 65 | 1011.1 |
| 20260904190036 | 80 | 321 | 0.0 | 5.0 | 0.00 | 0.30 | 0.30 | 67 | 1011.2 |
| 20260904185516 | 81 | 313 | 1.0 | 7.0 | 0.00 | 0.30 | 0.30 | 62 | 1011.2 |
| 20260904185016 | 81 | 309 | 1.0 | 7.0 | 0.00 | 0.30 | 0.30 | 64 | 1011.3 |
| 20260904184537 | 82 | 319 | 2.0 | 8.0 | 0.00 | 0.30 | 0.30 | 61 | 1011.4 |
| 20260904184016 | 81 | 330 | 3.0 | 8.0 | 0.00 | 0.30 | 0.30 | 62 | 1011.4 |
| 20260904183518 | 81 | 0 | 1.0 | 9.0 | 0.00 | 0.30 | 0.30 | 66 | 1011.6 |
| 20260904183033 | 81 | 333 | 1.0 | 9.0 | 0.00 | 0.30 | 0.30 | 61 | 1011.6 |
| 20260904182519 | 82 | 317 | 2.0 | 8.0 | 0.00 | 0.30 | 0.30 | 63 | 1011.6 |
| 20260904182024 | 82 | 348 | 1.0 | 8.0 | 0.00 | 0.30 | 0.30 | 62 | 1011.5 |
| 20260904181534 | 82 | 0 | 3.0 | 8.0 | 0.00 | 0.30 | 0.30 | 61 | 1011.4 |
| 20260904181017 | 81 | 296 | 3.0 | 8.0 | 0.00 | 0.30 | 0.30 | 61 | 1011.5 |
| 20260904180518 | 80 | 0 | 1.0 | 5.0 | 0.00 | 0.30 | 0.30 | 65 | 1011.5 |
| 20260904180037 | 80 | 0 | 1.0 | 7.0 | 0.00 | 0.30 | 0.30 | 66 | 1011.4 |
| 20260904175522 | 79 | 313 | 1.0 | 7.0 | 0.00 | 0.30 | 0.30 | 65 | 1011.6 |
| 20260904175019 | 80 | 258 | 2.0 | 5.0 | 0.00 | 0.30 | 0.30 | 64 | 1011.5 |
| 20260904174533 | 80 | 333 | 1.0 | 11.0 | 0.00 | 0.30 | 0.30 | 64 | 1011.4 |
| 20260904174017 | 81 | 0 | 2.0 | 11.0 | 0.00 | 0.30 | 0.30 | 66 | 1011.5 |
| 20260904173517 | 81 | 349 | 4.0 | 11.0 | 0.00 | 0.30 | 0.30 | 63 | 1011.5 |
| 20260904173048 | 81 | 321 | 1.0 | 9.0 | 0.00 | 0.30 | 0.30 | 64 | 1011.4 |
| 20260904172521 | 81 | 317 | 2.0 | 10.0 | 0.00 | 0.30 | 0.30 | 65 | 1011.5 |
| 20260904172019 | 81 | 298 | 4.0 | 10.0 | 0.00 | 0.30 | 0.30 | 65 | 1011.6 |
| 20260904171536 | 80 | 315 | 2.0 | 14.0 | 0.00 | 0.30 | 0.30 | 64 | 1011.6 |
| 20260904171018 | 80 | 340 | 4.0 | 14.0 | 0.00 | 0.30 | 0.30 | 64 | 1011.6 |
| 20260904170518 | 80 | 334 | 3.0 | 8.0 | 0.00 | 0.30 | 0.30 | 65 | 1011.5 |
| 20260904170035 | 80 | 303 | 1.0 | 6.0 | 0.00 | 0.30 | 0.30 | 66 | 1011.6 |
| 20260904165522 | 80 | 0 | 2.0 | 10.0 | 0.00 | 0.30 | 0.30 | 67 | 1011.7 |
| 20260904165016 | 80 | 239 | 2.0 | 10.0 | 0.00 | 0.30 | 0.30 | 66 | 1011.7 |
| 20260904164536 | 81 | 0 | 2.0 | 10.0 | 0.00 | 0.30 | 0.30 | 71 | 1011.7 |
| 20260904164018 | 80 | 0 | 1.0 | 8.0 | 0.00 | 0.30 | 0.30 | 71 | 1011.6 |
| 20260904163519 | 80 | 324 | 2.0 | 10.0 | 0.00 | 0.30 | 0.30 | 67 | 1011.8 |
| 20260904163045 | 79 | 0 | 3.0 | 10.0 | 0.00 | 0.30 | 0.30 | 69 | 1011.8 |
| 20260904162518 | 79 | 278 | 3.0 | 9.0 | 0.00 | 0.30 | 0.30 | 69 | 1011.9 |
| 20260904162015 | 78 | 22 | 5.0 | 9.0 | 0.00 | 0.30 | 0.30 | 70 | 1011.9 |
| 20260904161534 | 78 | 328 | 3.0 | 9.0 | 0.00 | 0.30 | 0.30 | 69 | 1011.9 |
| 20260904161016 | 79 | 304 | 3.0 | 10.0 | 0.00 | 0.30 | 0.30 | 68 | 1011.9 |
| 20260904160522 | 79 | 341 | 4.0 | 10.0 | 0.00 | 0.30 | 0.30 | 68 | 1011.8 |
| 20260904160035 | 79 | 316 | 3.0 | 10.0 | 0.00 | 0.30 | 0.30 | 67 | 1011.7 |
| 20260904155518 | 79 | 316 | 2.0 | 10.0 | 0.00 | 0.30 | 0.30 | 72 | 1011.9 |
| 20260904155015 | 79 | 311 | 3.0 | 10.0 | 0.00 | 0.30 | 0.30 | 72 | 1012.2 |
| 20260904154536 | 78 | 0 | 1.0 | 6.0 | 0.00 | 0.30 | 0.30 | 73 | 1012.3 |
| 20260904154019 | 78 | 0 | 2.0 | 6.0 | 0.00 | 0.30 | 0.30 | 74 | 1012.3 |
| 20260904153520 | 78 | 319 | 2.0 | 6.0 | 0.00 | 0.30 | 0.30 | 74 | 1012.3 |
| 20260904153038 | 78 | 339 | 1.0 | 6.0 | 0.00 | 0.30 | 0.30 | 74 | 1012.3 |
| 20260904152518 | 78 | 333 | 1.0 | 6.0 | 0.00 | 0.30 | 0.30 | 76 | 1012.4 |
| 20260904152022 | 78 | 360 | 0.0 | 5.0 | 0.00 | 0.30 | 0.30 | 75 | 1012.4 |
| 20260904151537 | 78 | 0 | 0.0 | 4.0 | 0.00 | 0.30 | 0.30 | 76 | 1012.4 |
| 20260904151016 | 78 | 352 | 0.0 | 6.0 | 0.00 | 0.30 | 0.30 | 77 | 1012.4 |
| 20260904150516 | 77 | 0 | 0.0 | 7.0 | 0.00 | 0.30 | 0.30 | 78 | 1012.7 |
| 20260904150036 | 77 | 324 | 2.0 | 7.0 | 0.00 | 0.30 | 0.30 | 78 | 1012.7 |
| 20260904145518 | 77 | 0 | 0.0 | 4.0 | 0.00 | 0.30 | 0.30 | 78 | 1012.5 |
| 20260904145018 | 77 | 0 | 0.0 | 9.0 | 0.00 | 0.30 | 0.30 | 78 | 1012.4 |
| 20260904144534 | 78 | 0 | 2.0 | 9.0 | 0.00 | 0.30 | 0.30 | 75 | 1012.4 |
| 20260904144023 | 78 | 345 | 1.0 | 8.0 | 0.00 | 0.30 | 0.30 | 78 | 1012.4 |
| 20260904143519 | 77 | 313 | 2.0 | 8.0 | 0.00 | 0.30 | 0.30 | 78 | 1012.4 |
| 20260904143054 | 78 | 330 | 2.0 | 9.0 | 0.00 | 0.30 | 0.30 | 76 | 1012.4 |
| 20260904142516 | 78 | 256 | 2.0 | 9.0 | 0.00 | 0.30 | 0.30 | 78 | 1012.6 |
| 20260904142018 | 78 | 319 | 0.0 | 4.0 | 0.00 | 0.30 | 0.30 | 79 | 1012.5 |
| 20260904141536 | 77 | 0 | 0.0 | 4.0 | 0.00 | 0.30 | 0.30 | 81 | 1012.6 |
| 20260904141016 | 77 | 0 | 0.0 | 5.0 | 0.00 | 0.30 | 0.30 | 82 | 1012.5 |
| 20260904140520 | 76 | 0 | 1.0 | 8.0 | 0.00 | 0.30 | 0.30 | 82 | 1012.4 |
| 20260904140038 | 76 | 0 | 0.0 | 8.0 | 0.00 | 0.30 | 0.30 | 81 | 1012.5 |
| 20260904135522 | 76 | 308 | 2.0 | 8.0 | 0.00 | 0.30 | 0.30 | 82 | 1012.5 |
| 20260904135019 | 76 | 338 | 0.0 | 4.0 | 0.00 | 0.30 | 0.30 | 83 | 1012.5 |
| 20260904134536 | 75 | 287 | 0.0 | 4.0 | 0.00 | 0.30 | 0.30 | 83 | 1012.5 |
| 20260904134019 | 75 | 269 | 0.0 | 5.0 | 0.00 | 0.30 | 0.30 | 84 | 1012.3 |
| 20260904133516 | 74 | 0 | 0.0 | 10.0 | 0.00 | 0.30 | 0.30 | 87 | 1012.4 |
| 20260904133036 | 74 | 257 | 0.0 | 10.0 | 0.00 | 0.30 | 0.30 | 86 | 1012.5 |
| 20260904132516 | 73 | 348 | 2.0 | 10.0 | 0.00 | 0.30 | 0.30 | 88 | 1012.7 |